STARLINK-4412, 53477

Orbit data source: Space-Track

STARLINK-4412, 53477 is a payload satellite owned by SpaceX/Seattle (US) in SSO that was launched on Fri, 12 Aug 2022 UTC via an FALCON 9 launch vehicle from the Air Force Western Test Range (AFWTR). Payload-class satellites include a variety of spacecraft equipped with specific instruments for various scientific and technological missions. These include communications satellites like Starlink; space stations such as the ISS; scientific satellites like the Hubble; Earth observation satellites from companies like Planet Labs, Umbra, and HawkEye 360; GPS; miniature CubeSats for education and research; and military/defense satellites.

Loading next visibility...
Identifier
53477, 2022-099N
Orbit
SSO
Country
Flag of USUS
Related business
Manufacturer
SpaceX/Seattle
Mission
Operational Commercial Communications
Bus & Motor
STARLINK, Unknown motor
Mass
300 kg wet, ~275 kg dry
Launch date (UTC)
2022-08-12 (3 years ago)
Launch vehicle
FALCON 9
Launch site
Air Force Western Test Range (AFWTR)
Object type
Payload
Rocket body
Debris
Shape & HBR
Box + 1 Pan, 10.1 m
Radar Cross Section
13.562 m², Large (>1 m²)

Expand to show TLE details & history
Last TLE update: 8 hours ago

TLE from 8 hours ago
0 STARLINK-4412
1 53477U 22099N   25293.62253373  .00000984  00000-0  81140-4 0  9999
2 53477  97.6063  53.0451 0002041 233.2776 126.8261 15.01264041175669
Epoch: 2025-10-20T14:56Z
TLE epoch observation values (Epoch: 2025-10-20T14:56:26.914Z)
Latitude
-0.00002°
Longitude
159.61076°
Altitude
566.906 km
Speed
7.577 km/s
True Right ascension
03h 32m 10s
True Declination
0° 00' 00"
Sunlit
Object was in full shadow at epoch
Visualization orbit readout
Latitude
Unknown
Longitude
Unknown
Altitude
Unknown
Speed
Unknown
Apparent Right ascension
Unknown
Apparent Declination
Unknown
Sunlit
N/A
Visualization observer readout
Local Sidereal Time
18:15:04
Azimuth
Unknown
Elevation
Unknown
Doppler factor
Unknown
Orbital elements
Apogee altitude
561.413 km
Perigee altitude
558.581 km
Semi-major axis
6,938.134 km
Eccentricity
0.0002
Inclination
97.6063°
RAAN
53.0451°
Arg. of periapsis
233.2776°
True anomaly
126.84482°
Mean anomaly
126.8261°
Eccentric anomaly
126.83546°
Mean motion
3.7556 °/min
Orbital period
95.86 mins
BSTAR
0.00008114
Loading maneuver chart data...
Computing Atmospheric mass density...
Loading historical data...
Loading historical data...
Loading historical data...
Loading historical data...
Loading historical data...
Loading historical data...
Loading historical data...

Documentation

Showing up to 5 results
|